TimeMDT,TemperatureF,Dew PointF,Humidity,Sea Level PressureIn,VisibilityMPH,Wind Direction,Wind SpeedMPH,Gust SpeedMPH,PrecipitationIn,Events,Conditions,WindDirDegrees,DateUTC
11:55 AM,32.0,21.2,64,30.21,10.0,Calm,Calm,-,N/A,,Partly Cloudy,0,2013-04-01 17:55:00
12:15 PM,35.6,23.0,60,30.21,10.0,East,3.5,-,N/A,,Mostly Cloudy,80,2013-04-01 18:15:00
12:35 PM,35.6,23.0,60,30.21,10.0,NNE,3.5,-,N/A,,Scattered Clouds,20,2013-04-01 18:35:00
12:55 PM,35.6,23.0,60,30.20,10.0,WSW,4.6,-,N/A,,Mostly Cloudy,250,2013-04-01 18:55:00
1:15 PM,37.4,21.2,52,30.19,10.0,North,8.1,-,N/A,,Mostly Cloudy,360,2013-04-01 19:15:00
1:35 PM,37.4,23.0,56,30.19,10.0,North,8.1,-,N/A,Rain,Light Rain,360,2013-04-01 19:35:00
1:55 PM,39.2,23.0,52,30.18,10.0,North,9.2,-,N/A,,Partly Cloudy,350,2013-04-01 19:55:00
2:15 PM,39.2,23.0,52,30.18,10.0,Calm,Calm,-,N/A,,Partly Cloudy,0,2013-04-01 20:15:00
2:35 PM,41.0,23.0,49,30.18,10.0,NNE,6.9,-,N/A,,Mostly Cloudy,30,2013-04-01 20:35:00
2:55 PM,39.2,23.0,52,30.18,10.0,North,9.2,-,N/A,,Overcast,360,2013-04-01 20:55:00
3:15 PM,41.0,23.0,49,30.17,10.0,NNE,10.4,-,N/A,,Overcast,30,2013-04-01 21:15:00
3:35 PM,39.2,24.8,56,30.17,10.0,NNE,9.2,-,N/A,,Overcast,30,2013-04-01 21:35:00
3:55 PM,39.2,23.0,52,30.17,10.0,NNE,8.1,-,N/A,,Overcast,20,2013-04-01 21:55:00
4:15 PM,39.2,23.0,52,30.17,10.0,NNE,6.9,-,N/A,,Overcast,20,2013-04-01 22:15:00
4:35 PM,39.2,23.0,52,30.16,10.0,North,8.1,-,N/A,,Overcast,10,2013-04-01 22:35:00
4:55 PM,39.2,23.0,52,30.16,10.0,NNW,6.9,-,N/A,,Scattered Clouds,340,2013-04-01 22:55:00
5:15 PM,39.2,23.0,52,30.16,10.0,North,8.1,-,N/A,,Mostly Cloudy,360,2013-04-01 23:15:00
5:35 PM,39.2,23.0,52,30.16,10.0,North,6.9,-,N/A,,Partly Cloudy,350,2013-04-01 23:35:00
5:55 PM,39.2,23.0,52,30.16,10.0,North,6.9,-,N/A,,Clear,360,2013-04-01 23:55:00
6:15 PM,39.2,23.0,52,30.16,10.0,North,6.9,-,N/A,,Clear,350,2013-04-02 00:15:00
6:35 PM,37.4,23.0,56,30.16,10.0,NNE,6.9,-,N/A,,Partly Cloudy,20,2013-04-02 00:35:00
6:55 PM,37.4,24.8,60,30.16,10.0,NE,6.9,-,N/A,,Partly Cloudy,40,2013-04-02 00:55:00
7:15 PM,32.0,24.8,75,30.16,10.0,NE,6.9,-,N/A,,Partly Cloudy,40,2013-04-02 01:15:00
7:35 PM,32.0,24.8,75,30.16,10.0,ENE,6.9,-,N/A,,Partly Cloudy,70,2013-04-02 01:35:00
7:55 PM,28.4,24.8,86,30.16,10.0,ENE,6.9,-,N/A,,Clear,70,2013-04-02 01:55:00
8:15 PM,26.6,23.0,86,30.16,10.0,ENE,6.9,-,N/A,,Clear,70,2013-04-02 02:15:00
8:35 PM,26.6,23.0,86,30.16,10.0,East,5.8,-,N/A,,Clear,80,2013-04-02 02:35:00
8:55 PM,26.6,23.0,86,30.16,10.0,ENE,4.6,-,N/A,,Partly Cloudy,70,2013-04-02 02:55:00
9:15 PM,26.6,23.0,86,30.17,10.0,East,3.5,-,N/A,,Clear,80,2013-04-02 03:15:00
9:35 PM,26.6,23.0,86,30.17,10.0,SE,3.5,-,N/A,,Partly Cloudy,140,2013-04-02 03:35:00
9:55 PM,26.6,23.0,86,30.17,10.0,East,3.5,-,N/A,,Partly Cloudy,90,2013-04-02 03:55:00
10:15 PM,26.6,23.0,86,30.16,10.0,East,3.5,-,N/A,,Clear,100,2013-04-02 04:15:00
10:35 PM,24.8,23.0,93,30.16,10.0,Calm,Calm,-,N/A,,Partly Cloudy,0,2013-04-02 04:35:00
10:55 PM,24.8,21.2,86,30.16,10.0,Calm,Calm,-,N/A,,Partly Cloudy,0,2013-04-02 04:55:00
11:15 PM,24.8,21.2,86,30.16,10.0,Calm,Calm,-,N/A,,Partly Cloudy,0,2013-04-02 05:15:00
11:35 PM,24.8,23.0,93,30.15,10.0,Calm,Calm,-,N/A,,Clear,0,2013-04-02 05:35:00
11:55 PM,24.8,21.2,86,30.16,10.0,SE,3.5,-,N/A,,Partly Cloudy,130,2013-04-02 05:55:00